,,PA_Meas_PMT16A,,PR_Meas_QMR101_102,,RH_Meas_QMH101,,SR_Meas_QMS101,,TA_Meas_QMH101,,GenWind,,GenWind,
time,status,PA,status,PR,status,RH,status,SR,status,TA,status,DirAvg,status,SpdAvg,
2012-08-13, 00:00:04,VALID,918.176,VALID,0,VALID,97.2672,VALID,0,VALID,17.8743,VALID,50,VALID,0,
2012-08-13, 00:01:04,VALID,918.188,VALID,0,VALID,97.2367,VALID,0,VALID,17.8743,VALID,50,VALID,0,
2012-08-13, 00:02:04,VALID,918.184,VALID,0,VALID,97.1299,VALID,0,VALID,17.8145,VALID,50,VALID,0,
2012-08-13, 00:03:04,VALID,918.212,VALID,0,VALID,97.1376,VALID,0,VALID,17.8158,VALID,50,VALID,0,
2012-08-13, 00:04:04,VALID,918.276,VALID,0,VALID,97.1452,VALID,0,VALID,17.795,VALID,50,VALID,0,
2012-08-13, 00:05:04,VALID,918.284,VALID,0,VALID,97.2595,VALID,0,VALID,17.8938,VALID,50,VALID,0,
2012-08-13, 00:06:04,VALID,918.278,VALID,0,VALID,97.2748,VALID,0,VALID,17.9718,VALID,50,VALID,0,
2012-08-13, 00:07:04,VALID,918.279,VALID,0,VALID,97.3053,VALID,0,VALID,18.0108,VALID,50,VALID,0,
2012-08-13, 00:08:04,VALID,918.301,VALID,0,VALID,97.29,VALID,0,VALID,18.0303,VALID,50,VALID,0,
2012-08-13, 00:09:04,VALID,918.256,VALID,0,VALID,97.3358,VALID,0,VALID,18.0303,VALID,50,VALID,0,
2012-08-13, 00:10:04,VALID,918.278,VALID,0,VALID,97.2595,VALID,0,VALID,17.9509,VALID,50,VALID,0,
2012-08-13, 00:11:04,VALID,918.298,VALID,0,VALID,96.9927,VALID,0,VALID,17.8353,VALID,50,VALID,0,
2012-08-13, 00:12:04,VALID,918.24,VALID,0.2,VALID,97.2214,VALID,0,VALID,17.8743,VALID,50,VALID,0,
2012-08-13, 00:13:04,VALID,918.256,VALID,0,VALID,97.2519,VALID,0,VALID,17.9133,VALID,50,VALID,0,
2012-08-13, 00:14:04,VALID,918.258,VALID,0,VALID,97.2672,VALID,0,VALID,17.9119,VALID,50,VALID,0,
2012-08-13, 00:15:04,VALID,918.24,VALID,0,VALID,97.2977,VALID,0,VALID,17.9509,VALID,50,VALID,0,
2012-08-13, 00:16:04,VALID,918.231,VALID,0,VALID,97.3281,VALID,0,VALID,18.0289,VALID,50,VALID,0,
2012-08-13, 00:17:04,VALID,918.18,VALID,0,VALID,97.3205,VALID,0,VALID,18.0693,VALID,50,VALID,0,
2012-08-13, 00:18:04,VALID,918.202,VALID,0,VALID,97.3358,VALID,0,VALID,18.1083,VALID,50,VALID,0,
2012-08-13, 00:19:04,VALID,918.16,VALID,0,VALID,97.3281,VALID,0,VALID,18.1083,VALID,50,VALID,0,
2012-08-13, 00:20:04,VALID,918.152,VALID,0,VALID,97.2977,VALID,0,VALID,18.1278,VALID,50,VALID,0,
2012-08-13, 00:21:04,VALID,918.127,VALID,0,VALID,97.2748,VALID,0,VALID,18.1083,VALID,50,VALID,0,
2012-08-13, 00:22:04,VALID,918.146,VALID,0,VALID,97.2519,VALID,0,VALID,18.0888,VALID,50,VALID,0,
2012-08-13, 00:23:04,VALID,918.166,VALID,0,VALID,97.2138,VALID,0,VALID,18.0289,VALID,50,VALID,0,
2012-08-13, 00:24:04,VALID,918.155,VALID,0,VALID,97.2138,VALID,0,VALID,18.1083,VALID,50,VALID,0,
2012-08-13, 00:25:04,VALID,918.154,VALID,0,VALID,97.2062,VALID,0,VALID,18.1278,VALID,50,VALID,0,
2012-08-13, 00:26:04,VALID,918.129,VALID,0,VALID,97.2062,VALID,0,VALID,18.1278,VALID,50,VALID,0,
2012-08-13, 00:27:04,VALID,918.15,VALID,0,VALID,97.1681,VALID,0,VALID,18.1472,VALID,50,VALID,0,
2012-08-13, 00:28:04,VALID,918.14,VALID,0,VALID,96.825,VALID,0,VALID,18.0693,VALID,50,VALID,0,
2012-08-13, 00:29:04,VALID,918.088,VALID,0,VALID,97.008,VALID,0,VALID,18.0289,VALID,50,VALID,0,
2012-08-13, 00:30:04,VALID,918.093,VALID,0,VALID,97.1909,VALID,0,VALID,18.0888,VALID,50,VALID,0,
2012-08-13, 00:31:04,VALID,918.04,VALID,0,VALID,97.1681,VALID,0,VALID,18.1278,VALID,50,VALID,0,
2012-08-13, 00:32:04,VALID,918.024,VALID,0,VALID,97.1681,VALID,0,VALID,18.1472,VALID,50,VALID,0,
2012-08-13, 00:33:04,VALID,917.977,VALID,0,VALID,97.1452,VALID,0,VALID,18.1654,VALID,50,VALID,0,
2012-08-13, 00:34:04,VALID,917.992,VALID,0,VALID,97.0842,VALID,0,VALID,18.1667,VALID,50,VALID,0,
2012-08-13, 00:35:04,VALID,917.937,VALID,0,VALID,97.0461,VALID,0,VALID,18.1472,VALID,50,VALID,0,
2012-08-13, 00:36:04,VALID,917.934,VALID,0,VALID,97.0461,VALID,0,VALID,18.1667,VALID,50,VALID,0,
2012-08-13, 00:37:04,VALID,917.877,VALID,0,VALID,97.0766,VALID,0,VALID,18.1472,VALID,172,VALID,0,
2012-08-13, 00:38:04,VALID,917.863,VALID,0,VALID,97.0461,VALID,0,VALID,18.1278,VALID,171,VALID,0,
2012-08-13, 00:39:04,VALID,917.872,VALID,0,VALID,97.0308,VALID,0,VALID,18.0888,VALID,171,VALID,0,
2012-08-13, 00:40:04,VALID,917.884,VALID,0,VALID,96.9851,VALID,0,VALID,18.0484,VALID,130,VALID,0,
2012-08-13, 00:41:04,VALID,917.883,VALID,0,VALID,96.9927,VALID,0,VALID,18.0094,VALID,149,VALID,0,
2012-08-13, 00:42:04,VALID,917.892,VALID,0,VALID,97.0461,VALID,0,VALID,18.0108,VALID,148,VALID,0,
2012-08-13, 00:43:04,VALID,917.882,VALID,0,VALID,97.0842,VALID,0,VALID,17.9913,VALID,156,VALID,0,
2012-08-13, 00:44:04,VALID,917.874,VALID,0,VALID,97.0766,VALID,0,VALID,17.9523,VALID,156,VALID,0,
2012-08-13, 00:45:04,VALID,917.871,VALID,0,VALID,97.0842,VALID,0,VALID,17.8925,VALID,143,VALID,0,
2012-08-13, 00:46:04,VALID,917.885,VALID,0,VALID,97.1223,VALID,0,VALID,17.8743,VALID,143,VALID,0,
2012-08-13, 00:47:04,VALID,917.848,VALID,0,VALID,97.1909,VALID,0,VALID,17.9328,VALID,143,VALID,0,
2012-08-13, 00:48:04,VALID,917.881,VALID,0,VALID,97.2062,VALID,0,VALID,17.9133,VALID,145,VALID,0,
2012-08-13, 00:49:04,VALID,917.922,VALID,0,VALID,97.2367,VALID,0,VALID,17.9328,VALID,145,VALID,0,
2012-08-13, 00:50:04,VALID,917.933,VALID,0,VALID,97.2367,VALID,0,VALID,17.9328,VALID,145,VALID,0,
2012-08-13, 00:51:04,VALID,917.932,VALID,0,VALID,97.2595,VALID,0,VALID,17.9328,VALID,145,VALID,0,
2012-08-13, 00:52:04,VALID,917.95,VALID,0,VALID,97.2672,VALID,0,VALID,17.9314,VALID,145,VALID,0,
2012-08-13, 00:53:04,VALID,917.941,VALID,0,VALID,97.2595,VALID,0,VALID,17.9913,VALID,145,VALID,0,
2012-08-13, 00:54:04,VALID,917.971,VALID,0,VALID,97.2672,VALID,0,VALID,18.0498,VALID,145,VALID,0,
2012-08-13, 00:55:04,VALID,917.966,VALID,0,VALID,97.2824,VALID,0,VALID,18.0693,VALID,145,VALID,0,
2012-08-13, 00:56:04,VALID,917.958,VALID,0,VALID,97.2977,VALID,0,VALID,18.1278,VALID,145,VALID,0,
2012-08-13, 00:57:04,VALID,917.949,VALID,0,VALID,97.2977,VALID,0,VALID,18.1278,VALID,145,VALID,0,
2012-08-13, 00:58:04,VALID,917.966,VALID,0,VALID,97.29,VALID,0,VALID,18.1472,VALID,145,VALID,0,
2012-08-13, 00:59:04,VALID,917.923,VALID,0,VALID,97.2977,VALID,0,VALID,18.1459,VALID,145,VALID,0,
2012-08-13, 01:00:04,VALID,917.945,VALID,0,VALID,97.29,VALID,0,VALID,18.1654,VALID,145,VALID,0,
2012-08-13, 01:01:04,VALID,917.935,VALID,0,VALID,97.2672,VALID,0,VALID,18.1862,VALID,145,VALID,0,
2012-08-13, 01:02:04,VALID,917.948,VALID,0,VALID,97.2824,VALID,0,VALID,18.2057,VALID,145,VALID,0,
2012-08-13, 01:03:04,VALID,917.915,VALID,0,VALID,97.2519,VALID,0,VALID,18.1654,VALID,145,VALID,0,
2012-08-13, 01:04:04,VALID,917.919,VALID,0,VALID,97.2367,VALID,0,VALID,18.1849,VALID,145,VALID,0,
2012-08-13, 01:05:04,VALID,917.907,VALID,0,VALID,97.2443,VALID,0,VALID,18.2044,VALID,145,VALID,0,
2012-08-13, 01:06:04,VALID,917.874,VALID,0,VALID,97.229,VALID,0,VALID,18.2238,VALID,145,VALID,0,
2012-08-13, 01:07:04,VALID,917.861,VALID,0,VALID,97.229,VALID,0,VALID,18.2628,VALID,145,VALID,0,
2012-08-13, 01:08:04,VALID,917.829,VALID,0,VALID,97.2595,VALID,0,VALID,18.3018,VALID,145,VALID,0,
2012-08-13, 01:09:04,VALID,917.81,VALID,0,VALID,97.2367,VALID,0,VALID,18.3213,VALID,145,VALID,0,
2012-08-13, 01:10:04,VALID,917.819,VALID,0,VALID,97.229,VALID,0,VALID,18.3408,VALID,129,VALID,0,
2012-08-13, 01:11:04,VALID,917.77,VALID,0,VALID,97.229,VALID,0,VALID,18.3812,VALID,129,VALID,0,
2012-08-13, 01:12:04,VALID,917.779,VALID,0,VALID,97.2443,VALID,0,VALID,18.3798,VALID,129,VALID,0,
2012-08-13, 01:13:04,VALID,917.76,VALID,0,VALID,97.2214,VALID,0.107441,VALID,18.3993,VALID,129,VALID,0,
2012-08-13, 01:14:04,VALID,917.761,VALID,0,VALID,97.1833,VALID,0,VALID,18.4383,VALID,129,VALID,0,
2012-08-13, 01:15:04,VALID,917.781,VALID,0,VALID,97.1604,VALID,0,VALID,18.4188,VALID,129,VALID,0,
2012-08-13, 01:16:04,VALID,917.767,VALID,0,VALID,97.1681,VALID,0,VALID,18.4383,VALID,129,VALID,0,
2012-08-13, 01:17:04,VALID,917.756,VALID,0,VALID,97.1071,VALID,0,VALID,18.4383,VALID,129,VALID,0,
2012-08-13, 01:18:04,VALID,917.722,VALID,0,VALID,97.1147,VALID,0,VALID,18.4578,VALID,129,VALID,0,
2012-08-13, 01:19:04,VALID,917.68,VALID,0,VALID,97.0613,VALID,0,VALID,18.4773,VALID,129,VALID,0,
2012-08-13, 01:20:04,VALID,917.677,VALID,0,VALID,97.0461,VALID,0,VALID,18.4578,VALID,129,VALID,0,
2012-08-13, 01:21:04,VALID,917.62,VALID,0,VALID,97.008,VALID,0,VALID,18.4383,VALID,129,VALID,0,
2012-08-13, 01:22:04,VALID,917.628,VALID,0,VALID,96.947,VALID,0,VALID,18.3798,VALID,144,VALID,0,
2012-08-13, 01:23:04,VALID,917.604,VALID,0,VALID,96.9241,VALID,0,VALID,18.3213,VALID,144,VALID,0,
2012-08-13, 01:24:04,VALID,917.609,VALID,0,VALID,96.886,VALID,0.107441,VALID,18.2823,VALID,144,VALID,0.154297,
2012-08-13, 01:25:04,VALID,917.602,VALID,0,VALID,96.9089,VALID,0,VALID,18.2447,VALID,132,VALID,0,
2012-08-13, 01:26:04,VALID,917.565,VALID,0,VALID,96.9394,VALID,0,VALID,18.1459,VALID,132,VALID,0,
2012-08-13, 01:27:04,VALID,917.561,VALID,0,VALID,97.008,VALID,0,VALID,18.1069,VALID,132,VALID,0,
2012-08-13, 01:28:04,VALID,917.486,VALID,0,VALID,97.0461,VALID,0,VALID,18.0874,VALID,132,VALID,0,
2012-08-13, 01:29:04,VALID,917.514,VALID,0,VALID,97.0537,VALID,0,VALID,18.0679,VALID,128,VALID,0,
2012-08-13, 01:30:04,VALID,917.434,VALID,0,VALID,97.0461,VALID,0,VALID,18.0679,VALID,129,VALID,0,
2012-08-13, 01:31:04,VALID,917.414,VALID,0,VALID,97.0461,VALID,0.107441,VALID,18.0874,VALID,129,VALID,0,
2012-08-13, 01:32:04,VALID,917.378,VALID,0,VALID,97.0461,VALID,0,VALID,18.0874,VALID,129,VALID,0,
2012-08-13, 01:33:04,VALID,917.344,VALID,0,VALID,96.9775,VALID,0,VALID,18.1069,VALID,129,VALID,0,
2012-08-13, 01:34:04,VALID,917.318,VALID,0,VALID,96.9317,VALID,0,VALID,18.1459,VALID,116,VALID,0,
2012-08-13, 01:35:04,VALID,917.31,VALID,0,VALID,96.8098,VALID,0,VALID,18.1654,VALID,111,VALID,0,
2012-08-13, 01:36:04,VALID,917.301,VALID,0,VALID,96.703,VALID,0,VALID,18.1459,VALID,124,VALID,0,
2012-08-13, 01:37:04,VALID,917.286,VALID,0,VALID,96.6192,VALID,0,VALID,18.1849,VALID,126,VALID,0,
2012-08-13, 01:38:04,VALID,917.271,VALID,0,VALID,96.5506,VALID,0.107441,VALID,18.1849,VALID,128,VALID,0,
2012-08-13, 01:39:04,VALID,917.254,VALID,0,VALID,96.3905,VALID,0,VALID,18.2238,VALID,131,VALID,0,
2012-08-13, 01:40:04,VALID,917.267,VALID,0,VALID,96.299,VALID,0.107441,VALID,18.2433,VALID,135,VALID,0,
2012-08-13, 01:41:04,VALID,917.229,VALID,0,VALID,96.1465,VALID,0,VALID,18.2642,VALID,138,VALID,0,
2012-08-13, 01:42:04,VALID,917.237,VALID,0,VALID,96.0474,VALID,0,VALID,18.2433,VALID,144,VALID,0,
2012-08-13, 01:43:04,VALID,917.245,VALID,0,VALID,95.9254,VALID,0,VALID,18.2628,VALID,142,VALID,0,
2012-08-13, 01:44:04,VALID,917.222,VALID,0,VALID,95.8416,VALID,0,VALID,18.2433,VALID,139,VALID,0,
2012-08-13, 01:45:04,VALID,917.231,VALID,0,VALID,95.7882,VALID,0,VALID,18.2433,VALID,135,VALID,0,
2012-08-13, 01:46:04,VALID,917.224,VALID,0,VALID,95.7654,VALID,0,VALID,18.2433,VALID,134,VALID,0,
2012-08-13, 01:47:04,VALID,917.204,VALID,0,VALID,95.6967,VALID,0,VALID,18.2238,VALID,134,VALID,0,
2012-08-13, 01:48:04,VALID,917.215,VALID,0,VALID,95.651,VALID,0,VALID,18.2238,VALID,134,VALID,0,
2012-08-13, 01:49:04,VALID,917.201,VALID,0,VALID,95.6205,VALID,0,VALID,18.2238,VALID,134,VALID,0,
2012-08-13, 01:50:04,VALID,917.205,VALID,0,VALID,95.59,VALID,0,VALID,18.2044,VALID,134,VALID,0,
2012-08-13, 01:51:04,VALID,917.179,VALID,0,VALID,95.529,VALID,0,VALID,18.2044,VALID,127,VALID,0,
2012-08-13, 01:52:04,VALID,917.166,VALID,0,VALID,95.4299,VALID,0,VALID,18.2044,VALID,134,VALID,0,
2012-08-13, 01:53:04,VALID,917.176,VALID,0,VALID,95.3842,VALID,0,VALID,18.2044,VALID,143,VALID,0,
2012-08-13, 01:54:04,VALID,917.21,VALID,0,VALID,95.2698,VALID,0,VALID,18.1654,VALID,138,VALID,0,
2012-08-13, 01:55:04,VALID,917.241,VALID,0,VALID,95.2851,VALID,0,VALID,18.1069,VALID,134,VALID,0,
2012-08-13, 01:56:04,VALID,917.241,VALID,0,VALID,95.3079,VALID,0,VALID,18.0498,VALID,129,VALID,0,
2012-08-13, 01:57:04,VALID,917.279,VALID,0,VALID,95.4757,VALID,0,VALID,18.0094,VALID,116,VALID,0,
2012-08-13, 01:58:04,VALID,917.293,VALID,0,VALID,95.5748,VALID,0,VALID,17.9509,VALID,134,VALID,0,
2012-08-13, 01:59:04,VALID,917.24,VALID,0,VALID,95.6739,VALID,0,VALID,18.0108,VALID,128,VALID,0,
2012-08-13, 02:00:04,VALID,917.233,VALID,0,VALID,95.6815,VALID,0,VALID,18.0108,VALID,121,VALID,0,
2012-08-13, 02:01:04,VALID,917.233,VALID,0,VALID,95.7044,VALID,0,VALID,18.0289,VALID,128,VALID,0,
2012-08-13, 02:02:04,VALID,917.223,VALID,0,VALID,95.7577,VALID,0,VALID,18.0289,VALID,130,VALID,0,
2012-08-13, 02:03:04,VALID,917.205,VALID,0,VALID,95.773,VALID,0,VALID,18.0888,VALID,133,VALID,0,
2012-08-13, 02:04:04,VALID,917.178,VALID,0,VALID,95.7272,VALID,0,VALID,18.0484,VALID,125,VALID,0,
2012-08-13, 02:05:04,VALID,917.174,VALID,0,VALID,95.6815,VALID,0,VALID,18.0693,VALID,106,VALID,0,
2012-08-13, 02:06:04,VALID,917.145,VALID,0,VALID,95.712,VALID,0,VALID,18.0303,VALID,119,VALID,0,
2012-08-13, 02:07:04,VALID,917.15,VALID,0,VALID,95.6891,VALID,0,VALID,18.0303,VALID,117,VALID,0,
2012-08-13, 02:08:04,VALID,917.109,VALID,0,VALID,95.7349,VALID,0,VALID,18.0303,VALID,117,VALID,0,
2012-08-13, 02:09:04,VALID,917.081,VALID,0,VALID,95.7349,VALID,0,VALID,18.0303,VALID,117,VALID,0,
2012-08-13, 02:10:04,VALID,917.071,VALID,0,VALID,95.6815,VALID,0,VALID,18.0498,VALID,117,VALID,0,
2012-08-13, 02:11:04,VALID,917.042,VALID,0,VALID,95.7425,VALID,0,VALID,18.0888,VALID,125,VALID,0,
2012-08-13, 02:12:04,VALID,917.053,VALID,0,VALID,95.6586,VALID,0,VALID,18.0888,VALID,122,VALID,0,
2012-08-13, 02:13:04,VALID,917.041,VALID,0,VALID,95.6815,VALID,0,VALID,18.0888,VALID,118,VALID,0,
2012-08-13, 02:14:04,VALID,917.043,VALID,0,VALID,95.7425,VALID,0,VALID,18.0888,VALID,118,VALID,0,
2012-08-13, 02:15:04,VALID,917.034,VALID,0,VALID,95.7958,VALID,0,VALID,18.1278,VALID,118,VALID,0,
2012-08-13, 02:16:04,VALID,917.015,VALID,0,VALID,95.8645,VALID,0,VALID,18.1278,VALID,128,VALID,0,
2012-08-13, 02:17:04,VALID,916.995,VALID,0,VALID,95.8263,VALID,0,VALID,18.0679,VALID,133,VALID,0,
2012-08-13, 02:18:04,VALID,916.991,VALID,0,VALID,95.8035,VALID,0,VALID,18.0108,VALID,127,VALID,0,
2012-08-13, 02:19:04,VALID,917.002,VALID,0,VALID,95.9254,VALID,0,VALID,17.9899,VALID,128,VALID,0,
2012-08-13, 02:20:04,VALID,916.962,VALID,0,VALID,96.0245,VALID,0,VALID,18.0094,VALID,128,VALID,0,
2012-08-13, 02:21:04,VALID,916.946,VALID,0,VALID,96.1236,VALID,0,VALID,17.9899,VALID,128,VALID,0,
2012-08-13, 02:22:04,VALID,916.936,VALID,0,VALID,96.1923,VALID,0,VALID,17.9899,VALID,128,VALID,0,
2012-08-13, 02:23:04,VALID,916.96,VALID,0,VALID,96.3295,VALID,0,VALID,18.0498,VALID,128,VALID,0,
2012-08-13, 02:24:04,VALID,916.927,VALID,0,VALID,96.4133,VALID,0,VALID,18.0484,VALID,128,VALID,0,
2012-08-13, 02:25:04,VALID,916.942,VALID,0,VALID,96.4515,VALID,0,VALID,18.0679,VALID,113,VALID,0,
2012-08-13, 02:26:04,VALID,916.938,VALID,0,VALID,96.4819,VALID,0,VALID,18.0693,VALID,113,VALID,0,
2012-08-13, 02:27:04,VALID,916.966,VALID,0,VALID,96.4591,VALID,0,VALID,18.0888,VALID,113,VALID,0,
2012-08-13, 02:28:04,VALID,916.948,VALID,0,VALID,96.6192,VALID,0,VALID,18.1278,VALID,117,VALID,0,
2012-08-13, 02:29:04,VALID,916.951,VALID,0,VALID,96.6344,VALID,0,VALID,18.1472,VALID,121,VALID,0,
2012-08-13, 02:30:04,VALID,916.963,VALID,0,VALID,96.5353,VALID,0,VALID,18.1264,VALID,121,VALID,0,
2012-08-13, 02:31:04,VALID,916.958,VALID,0,VALID,96.5201,VALID,0,VALID,18.1472,VALID,121,VALID,0,
2012-08-13, 02:32:04,VALID,916.936,VALID,0,VALID,96.5201,VALID,0,VALID,18.1069,VALID,121,VALID,0,
2012-08-13, 02:33:04,VALID,916.942,VALID,0,VALID,96.4515,VALID,0,VALID,18.0679,VALID,121,VALID,0,
2012-08-13, 02:34:04,VALID,916.957,VALID,0,VALID,96.3981,VALID,0,VALID,18.0498,VALID,121,VALID,0,
2012-08-13, 02:35:04,VALID,916.91,VALID,0,VALID,96.4362,VALID,0,VALID,18.0094,VALID,121,VALID,0,
2012-08-13, 02:36:04,VALID,916.931,VALID,0,VALID,96.5124,VALID,0,VALID,17.9899,VALID,121,VALID,0,
2012-08-13, 02:37:04,VALID,916.933,VALID,0,VALID,96.6497,VALID,0,VALID,18.0303,VALID,121,VALID,0,
2012-08-13, 02:38:04,VALID,916.946,VALID,0,VALID,96.6954,VALID,0,VALID,18.0289,VALID,121,VALID,0,
2012-08-13, 02:39:04,VALID,916.936,VALID,0,VALID,96.7564,VALID,0,VALID,18.0498,VALID,121,VALID,0,
2012-08-13, 02:40:04,VALID,916.965,VALID,0,VALID,96.6878,VALID,0,VALID,18.0498,VALID,121,VALID,0,
2012-08-13, 02:41:04,VALID,916.968,VALID,0,VALID,96.7107,VALID,0,VALID,18.0498,VALID,121,VALID,0,
2012-08-13, 02:42:04,VALID,916.946,VALID,0,VALID,96.6878,VALID,0,VALID,18.0498,VALID,121,VALID,0,
2012-08-13, 02:43:04,VALID,916.926,VALID,0,VALID,96.5963,VALID,0,VALID,18.0303,VALID,122,VALID,0,
2012-08-13, 02:44:04,VALID,916.918,VALID,0,VALID,96.6039,VALID,0,VALID,17.9718,VALID,122,VALID,0,
2012-08-13, 02:45:04,VALID,916.894,VALID,0,VALID,96.6192,VALID,0,VALID,17.9509,VALID,145,VALID,0,
2012-08-13, 02:46:04,VALID,916.926,VALID,0,VALID,96.6802,VALID,0,VALID,17.9523,VALID,139,VALID,0,
2012-08-13, 02:47:04,VALID,916.93,VALID,0,VALID,96.6649,VALID,0,VALID,17.9523,VALID,124,VALID,0,
2012-08-13, 02:48:04,VALID,916.917,VALID,0,VALID,96.6649,VALID,0,VALID,17.9328,VALID,137,VALID,0,
2012-08-13, 02:49:04,VALID,916.939,VALID,0,VALID,96.642,VALID,0,VALID,17.9133,VALID,134,VALID,0,
2012-08-13, 02:50:04,VALID,916.948,VALID,0,VALID,96.7259,VALID,0,VALID,17.9133,VALID,132,VALID,0,
2012-08-13, 02:51:04,VALID,916.953,VALID,0,VALID,96.7107,VALID,0,VALID,17.9133,VALID,132,VALID,0,
2012-08-13, 02:52:04,VALID,916.958,VALID,0,VALID,96.7411,VALID,0,VALID,17.8938,VALID,138,VALID,0,
2012-08-13, 02:53:04,VALID,916.958,VALID,0,VALID,96.7488,VALID,0,VALID,17.8938,VALID,136,VALID,0,
2012-08-13, 02:54:04,VALID,916.957,VALID,0,VALID,96.8784,VALID,0,VALID,17.9328,VALID,133,VALID,0,
2012-08-13, 02:55:04,VALID,916.963,VALID,0,VALID,96.825,VALID,0,VALID,17.9328,VALID,127,VALID,0,
2012-08-13, 02:56:04,VALID,916.998,VALID,0,VALID,96.825,VALID,0,VALID,17.9523,VALID,127,VALID,0,
2012-08-13, 02:57:04,VALID,916.977,VALID,0,VALID,96.825,VALID,0,VALID,17.9328,VALID,127,VALID,0,
2012-08-13, 02:58:04,VALID,916.967,VALID,0,VALID,96.8631,VALID,0,VALID,17.9523,VALID,131,VALID,0,
2012-08-13, 02:59:04,VALID,917.003,VALID,0,VALID,96.8174,VALID,0,VALID,17.9328,VALID,133,VALID,0,
2012-08-13, 03:00:04,VALID,916.975,VALID,0,VALID,96.8098,VALID,0,VALID,17.9133,VALID,139,VALID,0,
2012-08-13, 03:01:04,VALID,917.021,VALID,0,VALID,96.8174,VALID,0,VALID,17.8925,VALID,138,VALID,0,
2012-08-13, 03:02:04,VALID,917.018,VALID,0,VALID,96.8021,VALID,0,VALID,17.8938,VALID,136,VALID,0,
2012-08-13, 03:03:04,VALID,917.037,VALID,0,VALID,96.886,VALID,0,VALID,17.9328,VALID,130,VALID,0,
2012-08-13, 03:04:04,VALID,917.046,VALID,0,VALID,96.8936,VALID,0,VALID,17.9133,VALID,130,VALID,0,
2012-08-13, 03:05:04,VALID,917.013,VALID,0,VALID,96.886,VALID,0,VALID,17.9328,VALID,130,VALID,0,
2012-08-13, 03:06:04,VALID,917.006,VALID,0,VALID,96.8403,VALID,0,VALID,17.9133,VALID,130,VALID,0,
2012-08-13, 03:07:04,VALID,916.99,VALID,0,VALID,96.8174,VALID,0,VALID,17.8938,VALID,130,VALID,0,
2012-08-13, 03:08:04,VALID,917.005,VALID,0,VALID,96.825,VALID,0,VALID,17.8535,VALID,130,VALID,0,
2012-08-13, 03:09:04,VALID,917.007,VALID,0,VALID,96.8174,VALID,0,VALID,17.8548,VALID,130,VALID,0,
2012-08-13, 03:10:04,VALID,917.014,VALID,0,VALID,96.8555,VALID,0,VALID,17.8548,VALID,130,VALID,0,
2012-08-13, 03:11:04,VALID,916.996,VALID,0,VALID,96.9089,VALID,0,VALID,17.8353,VALID,130,VALID,0,
2012-08-13, 03:12:04,VALID,917.026,VALID,0,VALID,96.947,VALID,0,VALID,17.8548,VALID,130,VALID,0,
2012-08-13, 03:13:04,VALID,917.024,VALID,0,VALID,96.9546,VALID,0,VALID,17.8548,VALID,130,VALID,0,
2012-08-13, 03:14:04,VALID,917.048,VALID,0,VALID,96.9698,VALID,0,VALID,17.8743,VALID,130,VALID,0,
2012-08-13, 03:15:04,VALID,917.046,VALID,0,VALID,97.008,VALID,0,VALID,17.8743,VALID,137,VALID,0,
2012-08-13, 03:16:04,VALID,917.083,VALID,0,VALID,97.0385,VALID,0,VALID,17.9342,VALID,139,VALID,0,
2012-08-13, 03:17:04,VALID,917.112,VALID,0,VALID,97.0385,VALID,0,VALID,17.9328,VALID,140,VALID,0,
2012-08-13, 03:18:04,VALID,917.089,VALID,0,VALID,97.0461,VALID,0,VALID,17.9509,VALID,142,VALID,0,
2012-08-13, 03:19:04,VALID,917.136,VALID,0,VALID,97.008,VALID,0,VALID,17.9509,VALID,140,VALID,0,
2012-08-13, 03:20:04,VALID,917.15,VALID,0,VALID,97.008,VALID,0,VALID,17.9509,VALID,141,VALID,0,
2012-08-13, 03:21:04,VALID,917.113,VALID,0,VALID,97.0156,VALID,0,VALID,17.9704,VALID,141,VALID,0,
2012-08-13, 03:22:04,VALID,917.158,VALID,0,VALID,97.0385,VALID,0,VALID,17.9704,VALID,140,VALID,0,
2012-08-13, 03:23:04,VALID,917.157,VALID,0,VALID,97.0308,VALID,0,VALID,17.9704,VALID,140,VALID,0,
2012-08-13, 03:24:04,VALID,917.159,VALID,0,VALID,97.0842,VALID,0,VALID,18.0303,VALID,140,VALID,0,
2012-08-13, 03:25:04,VALID,917.143,VALID,0,VALID,97.008,VALID,0,VALID,18.0094,VALID,133,VALID,0,
2012-08-13, 03:26:04,VALID,917.145,VALID,0,VALID,97.0308,VALID,0,VALID,18.0094,VALID,133,VALID,0,
2012-08-13, 03:27:04,VALID,917.152,VALID,0,VALID,97.008,VALID,0,VALID,17.9899,VALID,133,VALID,0,
2012-08-13, 03:28:04,VALID,917.14,VALID,0,VALID,97.008,VALID,0.107441,VALID,17.9899,VALID,133,VALID,0,
2012-08-13, 03:29:04,VALID,917.127,VALID,0,VALID,97.0156,VALID,0,VALID,18.0094,VALID,133,VALID,0,
2012-08-13, 03:30:04,VALID,917.088,VALID,0,VALID,97.0918,VALID,0.107441,VALID,18.0484,VALID,133,VALID,0,
2012-08-13, 03:31:04,VALID,917.031,VALID,0,VALID,97.0385,VALID,0.107441,VALID,18.0874,VALID,138,VALID,0,
2012-08-13, 03:32:04,VALID,917.044,VALID,0,VALID,96.9317,VALID,0.107441,VALID,18.0874,VALID,142,VALID,0,
2012-08-13, 03:33:04,VALID,917.039,VALID,0,VALID,96.9165,VALID,0,VALID,18.1083,VALID,146,VALID,0,
2012-08-13, 03:34:04,VALID,917.019,VALID,0,VALID,96.9089,VALID,0,VALID,18.1278,VALID,146,VALID,0,
2012-08-13, 03:35:04,VALID,917.045,VALID,0,VALID,96.9012,VALID,0,VALID,18.1278,VALID,146,VALID,0,
2012-08-13, 03:36:04,VALID,917.042,VALID,0,VALID,96.8707,VALID,0,VALID,18.1278,VALID,147,VALID,0,
2012-08-13, 03:37:04,VALID,917.013,VALID,0,VALID,96.8479,VALID,0,VALID,18.1264,VALID,146,VALID,0,
2012-08-13, 03:38:04,VALID,917.022,VALID,0,VALID,96.8326,VALID,0,VALID,18.1278,VALID,135,VALID,0,
2012-08-13, 03:39:04,VALID,917.003,VALID,0,VALID,96.7716,VALID,0,VALID,18.1083,VALID,135,VALID,0,
2012-08-13, 03:40:04,VALID,917.031,VALID,0,VALID,96.764,VALID,0,VALID,18.1083,VALID,138,VALID,0,
2012-08-13, 03:41:04,VALID,917.028,VALID,0,VALID,96.7793,VALID,0,VALID,18.1278,VALID,138,VALID,0,
2012-08-13, 03:42:04,VALID,916.995,VALID,0,VALID,96.7869,VALID,0,VALID,18.1278,VALID,138,VALID,0,
2012-08-13, 03:43:04,VALID,916.991,VALID,0,VALID,96.7564,VALID,0,VALID,18.1472,VALID,138,VALID,0,
2012-08-13, 03:44:04,VALID,917.037,VALID,0,VALID,96.7259,VALID,0,VALID,18.1278,VALID,138,VALID,0,
2012-08-13, 03:45:04,VALID,917.007,VALID,0,VALID,96.7183,VALID,0,VALID,18.1278,VALID,138,VALID,0,
2012-08-13, 03:46:04,VALID,917.026,VALID,0,VALID,96.6878,VALID,0,VALID,18.0693,VALID,138,VALID,0,
2012-08-13, 03:47:04,VALID,917.003,VALID,0,VALID,96.703,VALID,0,VALID,18.0693,VALID,139,VALID,0,
2012-08-13, 03:48:04,VALID,917.015,VALID,0,VALID,96.703,VALID,0,VALID,18.0693,VALID,142,VALID,0,
2012-08-13, 03:49:04,VALID,917.026,VALID,0,VALID,96.7259,VALID,0,VALID,18.0498,VALID,143,VALID,0,
2012-08-13, 03:50:04,VALID,917.043,VALID,0,VALID,96.7183,VALID,0,VALID,18.0511,VALID,143,VALID,0,
2012-08-13, 03:51:04,VALID,917.049,VALID,0,VALID,96.7183,VALID,0,VALID,18.0108,VALID,138,VALID,0,
2012-08-13, 03:52:04,VALID,917.047,VALID,0,VALID,96.764,VALID,0,VALID,18.0108,VALID,131,VALID,0,
2012-08-13, 03:53:04,VALID,917.068,VALID,0,VALID,96.7716,VALID,0,VALID,18.0121,VALID,130,VALID,0,
2012-08-13, 03:54:04,VALID,917.05,VALID,0,VALID,96.764,VALID,0,VALID,18.0108,VALID,132,VALID,0,
2012-08-13, 03:55:04,VALID,917.052,VALID,0,VALID,96.7335,VALID,0,VALID,18.0108,VALID,132,VALID,0,
2012-08-13, 03:56:04,VALID,917.063,VALID,0,VALID,96.6802,VALID,0,VALID,17.9718,VALID,131,VALID,0,
2012-08-13, 03:57:04,VALID,917.087,VALID,0,VALID,96.703,VALID,0,VALID,17.9718,VALID,129,VALID,0,
2012-08-13, 03:58:04,VALID,917.087,VALID,0,VALID,96.6649,VALID,0,VALID,17.9523,VALID,132,VALID,0,
2012-08-13, 03:59:04,VALID,917.103,VALID,0,VALID,96.6649,VALID,0,VALID,17.9328,VALID,143,VALID,0,